This is the latest recevied weather packets stored in our database for station/object N7JP. If no packets are shown the sender has not sent any weather packets the latest 10 day(s).
| Time | Temp. | Humidity | Pressure | Rain* | Wind** | Luminosity | Snow |
|---|---|---|---|---|---|---|---|
| 1777590467 | 18.89° C | 64% | 1012.6 hPa | 0 mm | - | - | - |
| 1777589565 | 18.89° C | 64% | 1012.6 hPa | 0 mm | - | - | - |
| 1777588663 | 18.33° C | 65% | 1012.7 hPa | 0 mm | - | - | - |
| 1777587762 | 18.33° C | 66% | 1013 hPa | 0 mm | - | - | - |
| 1777586861 | 18.89° C | 65% | 1013.1 hPa | 0 mm | - | - | - |
| 1777585943 | 18.33° C | 64% | 1013.2 hPa | 0 mm | - | - | - |
| 1777585043 | 18.89° C | 68% | 1013.3 hPa | 0 mm | - | - | - |
| 1777584130 | 17.78° C | 65% | 1013.5 hPa | 0 mm | - | - | - |
| 1777583207 | 18.33° C | 65% | 1013.6 hPa | 0 mm | - | - | - |
| 1777582309 | 17.78° C | 67% | 1013.7 hPa | 0 mm | - | - | - |
| 1777581407 | 18.33° C | 66% | 1013.8 hPa | 0 mm | - | - | - |
| 1777580470 | 18.33° C | 65% | 1013.9 hPa | 0 mm | - | - | - |
| 1777579571 | 17.22° C | 69% | 1014.1 hPa | 0 mm | - | - | - |
| 1777578645 | 17.78° C | 68% | 1014.3 hPa | 0 mm | - | - | - |
| 1777577734 | 17.78° C | 69% | 1014.4 hPa | 0 mm | - | - | - |
| 1777576833 | 17.78° C | 68% | 1014.5 hPa | 0 mm | - | - | - |
| 1777575935 | 16.67° C | 73% | 1014.6 hPa | 0 mm | - | - | - |
| 1777575027 | 15.56° C | 75% | 1014.8 hPa | 0 mm | - | - | - |
| 1777574119 | 15.56° C | 77% | 1015 hPa | 0 mm | - | - | - |
| 1777573215 | 16.11° C | 70% | 1015.1 hPa | 0 mm | - | - | - |
| 1777572316 | 16.11° C | 70% | 1015.4 hPa | 0 mm | - | - | - |
| 1777571415 | 16.11° C | 74% | 1015.4 hPa | 0 mm | - | - | - |
| 1777570489 | 15.56° C | 76% | 1015.6 hPa | 0 mm | - | - | - |
| 1777569588 | 15° C | 79% | 1015.8 hPa | 0 mm | - | - | - |
| 1777568686 | 13.89° C | 80% | 1016 hPa | 0 mm | - | - | - |
* Rain latest hour (hover to see other rain measurements)
** Current wind speed in m/s (hover to see current wind gust speed)